User: anonymous   Login
Location: Unspecified
(0.0000°N, 0.0000°E)
Time: 18:21:17
(UTC+00:00)
Language:

STARLINK-30145 - Orbit

View from above orbital plane
View from above orbital plane
View from above satellite
View from above satellite

Ground track
Ground track

The orbit is defined by the following mean orbital elements,

1 57496U          26144.79045851 +.00000000 +00000-0 +13274-3 0 00000
2 57496  43.0026 306.3063 0001484 258.5774 101.4911 15.27569541    06
Epoch (UTC): 24 May 2026 18:58:15
Eccentricity: 0.0001484
inclination: 43.0026°
perigee height: 482 km
apogee height: 484 km
right ascension of ascending node: 306.3063°
argument of perigee: 258.5774°
revolutions per day: 15.27569541
mean anomaly at epoch: 101.4911°

The dashed part of the orbit path shows where the satellite is in the earth's shadow,  

DLR